Location: Artiguedieu
(43.5000°N, 0.5454°E)
Time: 20:41:32
(UTC+00:00)

Vanguard 1 - Pass Details

Date: 30 July 2021
Orbit: 652 x 3831 km, 34.3° (Epoch: 19 September)

Event Time Altitude Azimuth Distance (km) Brightness Sun altitude
Rises 14:45:42 0° 266° (W) 3,937 13.8 47.8°
Reaches altitude 10° 14:48:06 10° 259° (WSW) 3,252 13.7 47.5°
Maximum altitude 14:55:51 42° 191° (S) 2,449 13.0 46.1°
Drops below altitude 10° 15:09:28 10° 128° (SE) 5,615 13.8 43.8°
Sets 15:15:10 0° 123° (ESE) 7,105 14.2 42.8°
